Погода в Ермолином

Россия / Новгородская область     58°31′57″N   31°04′44″E
темп.,
°C
ветер,
м/с
пор.,
м/с
влажн.,
%
обл.,
%
осадки,
мм/ч
давл.,
гПа
погр.,
м
14 апреля, ср
ср1400:00+10ссв0196100 1.3 101780
03:00+5с51086100 5.1 1017340
06:00+4ссз4992100 5.3 1017408
09:00+4ссз41090100 8.9 1019493
12:00+4ссз4886100 1.7 1020475
15:00+5с2677100 1.7 1021500
18:00+6св2672100 0.0 1022467
21:00+4ссв228493 0.0 102324
15 апреля, чт
чт1500:00+3ссв278990 0.0 1024157
03:00+2ссв4128293 0.0 1025359
06:00+1ссв4128391 0.0 1025364
09:00+4ссв5117512 0.0 1026550
12:00+8св685799 0.0 1026997
15:00+9св6850100 0.0 10251274
18:00+9св5953100 0.0 10251245
21:00+7св41063100 0.0 1026673
16 апреля, пт
пт1600:00+6св51171100 0.0 1026652
03:00+4св51177100 0.1 1026539
06:00+4св51174100 0.0 1026498
09:00+4св51172100 0.0 1026466
12:00+9всв695791 0.0 1027784
15:00+11всв6852100 0.0 10271041
18:00+11всв5950100 0.0 1027992
21:00+8всв4115799 0.0 1028395
17 апреля, сб
сб1700:00+6св5136725 0.0 1028445
03:00+4св4127428 0.0 1029370
06:00+3св4117817 0.0 1030324
09:00+7всв5106028 0.0 1030464
12:00+12всв57425 0.0 10301038
15:00+14в57335 0.0 10301416
18:00+13в47395 0.0 10291171
21:00+8всв38596 0.0 1030153
18 апреля, вс
вс1800:00+6в39675 0.0 1031195
03:00+4всв38745 0.0 1032145
06:00+3всв26795 0.0 1032122
09:00+8в36605 0.0 1032342
12:00+12вюв45435 0.0 10321165
15:00+14вюв34365 0.0 10321475
18:00+14в35390 0.0 10311193
21:00+9в35580 0.0 103284